This is the latest recevied weather packets stored in our database for station/object W4UWO. If no packets are shown the sender has not sent any weather packets the latest 10 day(s).
| Time | Temp. | Humidity | Pressure | Rain* | Wind** | Luminosity | Snow |
|---|---|---|---|---|---|---|---|
| 1787877811 | 27.22° C | 67% | 1015.2 hPa | 0 mm | - | 0 W/m² | - |
| 1787877506 | 27.22° C | 66% | 1015.3 hPa | 0 mm | - | 0 W/m² | - |
| 1787877202 | 27.22° C | 65% | 1015.3 hPa | 0 mm | - | 1 W/m² | - |
| 1787876902 | 27.78° C | 65% | 1015.3 hPa | 0 mm | - | 1 W/m² | - |
| 1787876597 | 27.78° C | 64% | 1015.2 hPa | 0 mm | - | 3 W/m² | - |
| 1787876297 | 27.78° C | 64% | 1015.3 hPa | 0 mm | - | 5 W/m² | - |
| 1787875995 | 28.33° C | 63% | 1015.2 hPa | 0 mm | - | 8 W/m² | - |
| 1787875691 | 28.33° C | 62% | 1015.3 hPa | 0 mm | - | 11 W/m² | - |
| 1787875389 | 28.89° C | 61% | 1015 hPa | 0 mm | - | 15 W/m² | - |
| 1787875089 | 28.89° C | 60% | 1015.1 hPa | 0 mm | - | 20 W/m² | - |
| 1787874784 | 29.44° C | 59% | 1015.1 hPa | 0 mm | - | 30 W/m² | - |
| 1787874482 | 29.44° C | 58% | 1014.8 hPa | 0 mm | - | 34 W/m² | - |
| 1787874177 | 30° C | 57% | 1015 hPa | 0 mm | - | 41 W/m² | - |
| 1787873872 | 30° C | 56% | 1015.2 hPa | 0 mm | - | 51 W/m² | - |
| 1787873571 | 30° C | 56% | 1015.2 hPa | 0 mm | - | 59 W/m² | - |
| 1787873267 | 30° C | 56% | 1015 hPa | 0 mm | - | 68 W/m² | - |
| 1787872965 | 30.56° C | 55% | 1015 hPa | 0 mm | - | 77 W/m² | - |
| 1787872661 | 30.56° C | 56% | 1015.3 hPa | 0 mm | - | 87 W/m² | - |
| 1787872357 | 30.56° C | 55% | 1015.2 hPa | 0 mm | - | 100 W/m² | - |
| 1787872051 | 30.56° C | 56% | 1015 hPa | 0 mm | - | 111 W/m² | - |
| 1787871747 | 31.11° C | 54% | 1014.8 hPa | 0 mm | - | 122 W/m² | - |
| 1787871447 | 31.67° C | 53% | 1015.1 hPa | 0 mm | - | 135 W/m² | - |
| 1787871142 | 31.67° C | 53% | 1015 hPa | 0 mm | - | 150 W/m² | - |
| 1787870842 | 31.67° C | 53% | 1015 hPa | 0 mm | - | 169 W/m² | - |
| 1787870537 | 31.67° C | 53% | 1014.9 hPa | 0 mm | - | 191 W/m² | - |
* Rain latest hour (hover to see other rain measurements)
** Current wind speed in m/s (hover to see current wind gust speed)